Change the Weather History Date:

Friday, October 5, 2012

  Actual Average Record
Temperature  
Mean Temperature 34 °F -  
Max Temperature 39 °F 64 °F 86 °F (2011)
Min Temperature 28 °F 39 °F 20 °F (1952)
Degree Days  
Heating Degree Days 32    
Moisture  
Dew Point 26 °F    
Average Humidity 72    
Maximum Humidity 93    
Minimum Humidity 56    
Precipitation  
Precipitation 0.00 in - - ()
Sea Level Pressure  
Sea Level Pressure 30.16 in    
Wind  
Wind Speed 21 mph (WNW)    
Max Wind Speed 29 mph    
Max Gust Speed 37 mph    
Visibility 10 miles    
Events      
Averages and records for this station are not official NWS values.
T = Trace of Precipitation, MM = Missing Value Source: NWS Daily Summary

Daily Weather History Graph

Daily Weather History Graph

Search for Another Location

Airport or City:

Trip Planner

Search our weather history database for the weather conditions in past years. The results will help you decide how hot, cold, wet, or windy it might be!

Date:

Astronomy

Oct. 05, 2012 Rise Set
Actual Time 7:25 AM CDT 6:52 PM CDT
Civil Twilight 6:55 AM CDT 7:22 PM CDT
Nautical Twilight 6:21 AM CDT 7:56 PM CDT
Astronomical Twilight 5:46 AM CDT 8:31 PM CDT
Moon 10:03 PM CDT (10/5) 12:48 PM CDT (10/5)
Length of Visible Light 12h 26m
Length of Day
11h 27m
Waning Gibbous, 74% of the Moon is Illuminated
Oct 5
Waning Gibbous
Oct 8
Last Quarter
Oct 15
New
Oct 21
First Quarter
Oct 29
Full

Hourly Weather History & Observations

Time (CDT) Temp. Windchill Dew Point Humidity Pressure Visibility Wind Dir Wind Speed Gust Speed Precip Events Conditions
12:14 AM 37.4 °F 25.9 °F 28.4 °F 70% 30.16 in 10.0 mi WNW 25.3 mph 32.2 mph N/A   Overcast
12:33 AM 37.4 °F 25.2 °F 28.4 °F 70% 30.16 in 10.0 mi West 28.8 mph 33.4 mph N/A   Overcast
12:53 AM 37.4 °F 25.9 °F 26.6 °F 65% 30.16 in 10.0 mi WNW 25.3 mph 32.2 mph N/A   Overcast
1:14 AM 37.4 °F 26.4 °F 26.6 °F 65% 30.17 in 10.0 mi WNW 23.0 mph 32.2 mph N/A   Overcast
1:33 AM 37.4 °F 26.6 °F 26.6 °F 65% 30.17 in 10.0 mi West 21.9 mph 29.9 mph N/A   Overcast
1:53 AM 37.4 °F 26.6 °F 26.6 °F 65% 30.16 in 10.0 mi West 21.9 mph 25.3 mph N/A   Overcast
2:14 AM 35.6 °F 24.5 °F 26.6 °F 70% 30.16 in 10.0 mi WNW 20.7 mph 27.6 mph N/A   Overcast
2:33 AM 35.6 °F 24.5 °F 26.6 °F 70% 30.16 in 10.0 mi West 20.7 mph - N/A   Overcast
3:14 AM 33.8 °F 23.9 °F 26.6 °F 75% 30.15 in 10.0 mi West 15.0 mph - N/A   Clear
3:33 AM 32.0 °F 21.2 °F 26.6 °F 80% 30.15 in 10.0 mi West 16.1 mph 20.7 mph N/A   Clear
3:53 AM 30.2 °F 19.3 °F 26.6 °F 86% 30.14 in 10.0 mi West 15.0 mph 20.7 mph N/A   Clear
4:14 AM 30.2 °F 19.3 °F 26.6 °F 86% 30.14 in 10.0 mi West 15.0 mph 25.3 mph N/A   Clear
4:33 AM 30.2 °F 18.5 °F 26.6 °F 86% 30.14 in 10.0 mi West 17.3 mph 23.0 mph N/A   Clear
4:54 AM 30.2 °F 18.1 °F 26.6 °F 86% 30.14 in 10.0 mi West 18.4 mph 23.0 mph N/A   Clear
5:13 AM 30.2 °F 18.9 °F 26.6 °F 86% 30.14 in 10.0 mi West 16.1 mph 23.0 mph N/A   Clear
5:33 AM 30.2 °F 19.8 °F 26.6 °F 86% 30.15 in 10.0 mi West 13.8 mph - N/A   Clear
5:54 AM 28.4 °F 17.5 °F 26.6 °F 93% 30.15 in 10.0 mi West 13.8 mph - N/A   Scattered Clouds
6:13 AM 28.4 °F 17.5 °F 24.8 °F 86% 30.15 in 10.0 mi West 13.8 mph - N/A   Clear
6:33 AM 28.4 °F 15.8 °F 24.8 °F 86% 30.14 in 10.0 mi West 18.4 mph 23.0 mph N/A   Clear
6:54 AM 28.4 °F 17.0 °F 24.8 °F 86% 30.14 in 10.0 mi West 15.0 mph 21.9 mph N/A   Clear
7:13 AM 28.4 °F 16.6 °F 24.8 °F 86% 30.14 in 10.0 mi West 16.1 mph - N/A   Clear
7:33 AM 28.4 °F 16.2 °F 24.8 °F 86% 30.14 in 10.0 mi West 17.3 mph 21.9 mph N/A   Clear
7:54 AM 28.4 °F 17.0 °F 24.8 °F 86% 30.15 in 10.0 mi West 15.0 mph 20.7 mph N/A   Clear
8:13 AM 28.4 °F 16.2 °F 24.8 °F 86% 30.15 in 10.0 mi West 17.3 mph 20.7 mph N/A   Scattered Clouds
8:33 AM 28.4 °F 15.4 °F 24.8 °F 86% 30.15 in 10.0 mi West 19.6 mph 23.0 mph N/A   Scattered Clouds
8:54 AM 30.2 °F 17.8 °F 24.8 °F 80% 30.16 in 10.0 mi WNW 19.6 mph 25.3 mph N/A   Scattered Clouds
9:33 AM 32.0 °F 20.5 °F 24.8 °F 75% 30.16 in 10.0 mi WNW 18.4 mph 24.2 mph N/A   Mostly Cloudy
9:54 AM 33.8 °F 22.8 °F 26.6 °F 75% 30.17 in 10.0 mi WNW 18.4 mph 26.5 mph N/A   Mostly Cloudy
10:13 AM 35.6 °F 24.0 °F 26.6 °F 70% 30.17 in 10.0 mi WNW 23.0 mph 26.5 mph N/A   Mostly Cloudy
10:33 AM 35.6 °F 24.8 °F 26.6 °F 70% 30.17 in 10.0 mi WNW 19.6 mph 27.6 mph N/A   Mostly Cloudy
10:54 AM 35.6 °F 25.2 °F 26.6 °F 70% 30.17 in 10.0 mi WNW 18.4 mph 28.8 mph N/A   Mostly Cloudy
11:13 AM 35.6 °F 23.7 °F 26.6 °F 70% 30.17 in 10.0 mi WNW 24.2 mph 29.9 mph N/A   Mostly Cloudy
11:33 AM 37.4 °F 25.9 °F 26.6 °F 65% 30.16 in 10.0 mi WNW 25.3 mph 33.4 mph N/A   Scattered Clouds
12:13 PM 39.2 °F 28.7 °F 26.6 °F 61% 30.16 in 10.0 mi WNW 23.0 mph 32.2 mph N/A   Mostly Cloudy
12:33 PM 37.4 °F 26.4 °F 24.8 °F 60% 30.16 in 10.0 mi WNW 23.0 mph 31.1 mph N/A   Mostly Cloudy
12:54 PM 39.2 °F 29.0 °F 24.8 °F 56% 30.16 in 10.0 mi WNW 21.9 mph 31.1 mph N/A   Overcast
1:13 PM 39.2 °F 28.7 °F 24.8 °F 56% 30.16 in 10.0 mi WNW 23.0 mph 32.2 mph N/A   Overcast
1:33 PM 39.2 °F 27.8 °F 24.8 °F 56% 30.16 in 10.0 mi WNW 27.6 mph 34.5 mph N/A   Overcast
1:54 PM 39.2 °F 28.0 °F 24.8 °F 56% 30.15 in 10.0 mi WNW 26.5 mph 33.4 mph N/A   Overcast
2:13 PM 39.2 °F 28.0 °F 24.8 °F 56% 30.16 in 10.0 mi WNW 26.5 mph 32.2 mph N/A   Overcast
2:33 PM 37.4 °F 25.6 °F 24.8 °F 60% 30.16 in 10.0 mi WNW 26.5 mph 36.8 mph N/A   Overcast
2:54 PM 39.2 °F 28.0 °F 26.6 °F 61% 30.16 in 10.0 mi West 26.5 mph 33.4 mph N/A   Overcast
3:13 PM 39.2 °F 28.3 °F 26.6 °F 61% 30.15 in 10.0 mi West 25.3 mph 33.4 mph N/A   Overcast
3:34 PM 39.2 °F 28.7 °F 24.8 °F 56% 30.16 in 10.0 mi WNW 23.0 mph 28.8 mph N/A   Overcast
3:53 PM 39.2 °F 29.0 °F 26.6 °F 61% 30.16 in 10.0 mi West 21.9 mph 31.1 mph N/A   Overcast
4:13 PM 37.4 °F 26.4 °F 24.8 °F 60% 30.16 in 10.0 mi WNW 23.0 mph 31.1 mph N/A   Overcast
4:34 PM 39.2 °F 29.0 °F 24.8 °F 56% 30.15 in 10.0 mi West 21.9 mph 26.5 mph N/A   Overcast
4:53 PM 37.4 °F 26.6 °F 24.8 °F 60% 30.16 in 10.0 mi WNW 21.9 mph 29.9 mph N/A   Overcast
5:13 PM 37.4 °F 27.2 °F 24.8 °F 60% 30.16 in 10.0 mi WNW 19.6 mph 32.2 mph N/A   Overcast
5:34 PM 37.4 °F 25.4 °F 26.6 °F 65% 30.16 in 10.0 mi West 27.6 mph 33.4 mph N/A   Overcast
5:53 PM 37.4 °F 26.1 °F 24.8 °F 60% 30.16 in 10.0 mi WNW 24.2 mph 33.4 mph N/A   Overcast
6:13 PM 37.4 °F 26.9 °F 26.6 °F 65% 30.16 in 10.0 mi WNW 20.7 mph 26.5 mph N/A   Overcast
6:34 PM 37.4 °F 26.9 °F 26.6 °F 65% 30.16 in 10.0 mi WNW 20.7 mph 31.1 mph N/A   Overcast
6:53 PM 37.4 °F 26.4 °F 26.6 °F 65% 30.17 in 10.0 mi WNW 23.0 mph 29.9 mph N/A   Overcast
7:13 PM 37.4 °F 27.2 °F 26.6 °F 65% 30.17 in 10.0 mi WNW 19.6 mph 25.3 mph N/A   Overcast
7:34 PM 37.4 °F 28.9 °F 28.4 °F 70% 30.18 in 10.0 mi NW 13.8 mph 19.6 mph N/A   Overcast
7:53 PM 35.6 °F 25.5 °F 28.4 °F 75% 30.19 in 10.0 mi NW 17.3 mph 27.6 mph N/A   Mostly Cloudy
8:13 PM 35.6 °F 24.0 °F 28.4 °F 75% 30.19 in 10.0 mi WNW 23.0 mph 29.9 mph N/A   Mostly Cloudy
8:34 PM 33.8 °F 22.5 °F 26.6 °F 75% 30.19 in 10.0 mi WNW 19.6 mph 24.2 mph N/A   Scattered Clouds
8:53 PM 33.8 °F 23.2 °F 26.6 °F 75% 30.19 in 10.0 mi WNW 17.3 mph 21.9 mph N/A   Clear
9:13 PM 33.8 °F 22.8 °F 28.4 °F 81% 30.19 in 10.0 mi WNW 18.4 mph 23.0 mph N/A   Mostly Cloudy
9:34 PM 33.8 °F 23.5 °F 28.4 °F 81% 30.20 in 10.0 mi WNW 16.1 mph 24.2 mph N/A   Mostly Cloudy
9:53 PM 33.8 °F 23.2 °F 28.4 °F 81% 30.20 in 10.0 mi WNW 17.3 mph 23.0 mph N/A   Overcast
10:14 PM 33.8 °F 22.8 °F 28.4 °F 81% 30.20 in 10.0 mi WNW 18.4 mph 26.5 mph N/A   Overcast
10:33 PM 33.8 °F 23.2 °F 28.4 °F 81% 30.20 in 10.0 mi WNW 17.3 mph 24.2 mph N/A   Mostly Cloudy
10:53 PM 33.8 °F 23.5 °F 28.4 °F 81% 30.20 in 10.0 mi WNW 16.1 mph 23.0 mph N/A   Scattered Clouds
11:33 PM 33.8 °F 24.3 °F 28.4 °F 81% 30.20 in 10.0 mi WNW 13.8 mph - N/A   Mostly Cloudy
11:53 PM 33.8 °F 24.8 °F 28.4 °F 81% 30.20 in 10.0 mi WNW 12.7 mph 20.7 mph N/A   Overcast